Volver al catálogo

COSMOS 394

ActivoMilitarVLEO
NORAD 4922·PAYLOAD·🇷🇺 Russia

Lanzado Feb 9, 1971 desde Plesetsk Cosmodrome

Loading…

Próximos Pases (próximas 24 horas)

TLE

ActualizadoSource: Space-Track

Época: Sep 14, 2026, 11:56 UTC

1 04922U 71010A   26257.49760559  .00004291  00000-0  82317-4 0  9994
2 04922  65.8209 342.5066 0006446 231.2443 128.8132 15.49398594 71857

Sigue COSMOS 394 en tiempo real con AllMySat

Download on the App Store